Location: Monteux
(44.0348°N, 4.9972°E)
Time: 14:27:12
(UTC+00:00)

SL-23 DEB - Pass Details

Date: 30 November 2020
Orbit: 425 x 3627 km, 51.4° (Epoch: 26 January)

Event Time Altitude Azimuth Distance (km) Brightness Sun altitude
Rises 17:17:39 0° 232° (SW) 2,438 8.6 -13.0°
Reaches altitude 10° 17:19:25 10° 231° (SW) 1,666 7.4 -13.3°
Maximum altitude 17:22:56 77° 145° (SE) 633 4.0 -13.9°
Enters shadow 17:26:20 21° 62° (ENE) 1,707 5.7 -14.5°
